Regional Weather Roundup
Issued by NWS Cleveland, OH

Home | Current Version | Previous Version | Graphics & Text | Print | Product List | Glossary On
Versions: 1 2 3 4 5 6 7 8 9 10 11 12 13 14 15 16 17 18 19 20 21 22 23 24 25 26 27 28 29 30 31 32 33 34 35 36 37 38 39 40 41 42 43 44 45 46 47 48 49 50
000
ASUS41 KCLE 230000
RWRCLE
OHIO REGIONAL WEATHER ROUNDUP
NATIONAL WEATHER SERVICE WILMINGTON, OH
800 PM EDT TUE APR 22 2014

NOTE: "FAIR" INDICATES FEW OR NO CLOUDS BELOW 12,000 FEET WITH NO
SIGNIFICANT WEATHER AND/OR OBSTRUCTIONS TO VISIBILITY.

OHZ001>008-015>018-024>027-034-035-043-044-230100-
   NORTHWEST OHIO

CITY           SKY/WX    TMP DP  RH WIND       PRES   REMARKS
DEFIANCE       CLEAR     50  31  48 NW22G28   29.91R
FINDLAY        MOCLDY    52  33  48 NW15G24   29.86R
TOLEDO EXPRESS CLOUDY    49  31  49 NW17G29   29.88R
TOLEDO METCALF CLOUDY    50  32  50 NW23G32   29.88R
LIMA           PTCLDY    51  33  50 NW23G30   29.88R
$$

OHZ009>014-019>023-028>033-038-089-230100-
   NORTHEAST OHIO

CITY           SKY/WX    TMP DP  RH WIND       PRES   REMARKS
CLE-HOPKINS    MOCLDY    51  33  50 NW17      29.83R
CLE-LAKEFRONT  CLOUDY    47  39  74 NW10      29.80R
CUY CO. ARPT   CLOUDY    46  36  66 NW16      29.80R
LORAIN-ELYRIA  CLOUDY    52  34  50 NW17G24   29.82R
ASHTABULA      CLOUDY    45  35  68 NW8       29.79R
AKRON-CANTON   MOCLDY    51  33  48 NW14      29.78R
WOOSTER        NOT AVBL
MANSFIELD      CLOUDY    52  33  48 NW17G26   29.81R
YOUNGSTOWN     CLOUDY    46  34  62 NW16G22   29.77R
$$

OHZ042-051>053-060>062-070>072-077>081-230100-
  SOUTHWEST OHIO

CITY           SKY/WX    TMP DP  RH WIND       PRES   REMARKS
CINC-COVINGTON PTCLDY    58  32  37 NW16      29.89R
CINC-LUNKEN    PTCLDY    59  33  37 N15G24    29.89R
HAMILTON       PTCLDY    57  34  41 NW14G22   29.91R
DAYTON         NOT AVBL
WRIGHT-PAT AFB PTCLDY    54  31  42 NW18G31   29.89R
DAYTON GENERAL PTCLDY    54  31  41 NW20G31   29.88R
WILMINGTON     PTCLDY    56  31  38 NW18G25   29.86R
$$

OHZ036-037-039>041-045>050-054>059-063>069-073>076-082>088-230100-
  CENTRAL AND SOUTHEAST OHIO

CITY           SKY/WX    TMP DP  RH WIND       PRES   REMARKS
COLUMBUS       PTCLDY    57  31  37 NW25G32   29.82R
OSU AIRPORT    PTCLDY    54  32  43 NW20G26   29.82R
BOLTON FIELD   NOT AVBL
RICKENBACK AFB NOT AVBL
NEWARK         CLEAR     56  32  40 NW16G29   29.80R
MARION         CLOUDY    53  33  46 NW16G25   29.84R
LANCASTER      PTCLDY    58  32  37 NW18      29.81R
ZANESVILLE     CLEAR     58  32  37 NW15      29.77R
NEW PHILLY     CLEAR     53  34  48 N17G26    29.78R
$$



USA.gov is the U.S. government's official web portal to all federal, state and local government web resources and services.